TimeEDT,TemperatureF,Dew PointF,Humidity,Sea Level PressureIn,VisibilityMPH,Wind Direction,Wind SpeedMPH,Gust SpeedMPH,PrecipitationIn,Events,Conditions,WindDirDegrees,DateUTC
12:53 AM,80.1,70.0,71,29.92,10.0,North,10.4,-,N/A,,Partly Cloudy,360,2013-10-16 04:53:00
1:53 AM,80.1,72.0,76,29.91,10.0,North,5.8,-,N/A,,Partly Cloudy,360,2013-10-16 05:53:00
2:53 AM,79.0,71.1,77,29.89,10.0,East,6.9,-,N/A,,Mostly Cloudy,90,2013-10-16 06:53:00
3:53 AM,79.0,72.0,79,29.89,10.0,ENE,4.6,-,N/A,,Scattered Clouds,60,2013-10-16 07:53:00
4:53 AM,78.1,71.1,79,29.90,10.0,NE,3.5,-,N/A,,Overcast,50,2013-10-16 08:53:00
5:53 AM,77.0,71.1,82,29.91,10.0,NE,3.5,-,N/A,,Clear,40,2013-10-16 09:53:00
6:01 AM,77.0,71.6,83,29.91,10.0,Calm,Calm,-,N/A,,Clear,0,2013-10-16 10:01:00
6:53 AM,77.0,72.0,84,29.92,10.0,NE,3.5,-,N/A,,Partly Cloudy,50,2013-10-16 10:53:00
7:53 AM,78.1,73.0,84,29.93,10.0,Variable,3.5,-,N/A,,Partly Cloudy,0,2013-10-16 11:53:00
8:53 AM,81.0,71.1,72,29.94,10.0,NE,4.6,-,N/A,,Partly Cloudy,50,2013-10-16 12:53:00
9:53 AM,82.9,70.0,65,29.95,10.0,NE,6.9,-,N/A,,Scattered Clouds,50,2013-10-16 13:53:00
10:53 AM,84.0,70.0,63,29.95,10.0,NNE,8.1,-,N/A,,Scattered Clouds,30,2013-10-16 14:53:00
11:53 AM,84.9,70.0,61,29.96,10.0,NNE,6.9,-,N/A,,Partly Cloudy,30,2013-10-16 15:53:00
12:53 PM,84.9,68.0,57,29.94,10.0,NNE,8.1,-,N/A,,Partly Cloudy,30,2013-10-16 16:53:00
1:53 PM,86.0,68.0,55,29.92,10.0,NNE,8.1,-,N/A,,Clear,30,2013-10-16 17:53:00
2:53 PM,86.0,66.0,51,29.90,10.0,NNE,8.1,-,N/A,,Clear,20,2013-10-16 18:53:00
3:53 PM,86.0,66.0,51,29.89,10.0,North,8.1,-,N/A,,Clear,360,2013-10-16 19:53:00
4:53 PM,84.9,66.0,53,29.89,10.0,North,6.9,-,N/A,,Partly Cloudy,10,2013-10-16 20:53:00
5:53 PM,84.0,68.0,58,29.90,10.0,North,6.9,-,N/A,,Partly Cloudy,350,2013-10-16 21:53:00
6:53 PM,81.0,66.9,62,29.90,10.0,North,5.8,-,N/A,,Partly Cloudy,350,2013-10-16 22:53:00
7:53 PM,80.1,64.9,60,29.91,10.0,NNW,5.8,-,N/A,,Partly Cloudy,340,2013-10-16 23:53:00
8:53 PM,80.1,66.0,62,29.93,10.0,NNW,5.8,-,N/A,,Partly Cloudy,330,2013-10-17 00:53:00
9:53 PM,80.1,66.9,64,29.95,10.0,North,8.1,-,N/A,,Partly Cloudy,350,2013-10-17 01:53:00
10:53 PM,80.1,66.9,64,29.95,10.0,North,6.9,-,N/A,,Clear,360,2013-10-17 02:53:00
11:53 PM,80.1,68.0,67,29.94,10.0,North,8.1,-,N/A,,Clear,360,2013-10-17 03:53:00